Regional Weather Roundup
Issued by NWS

Home | Current Version | Previous Version | Text Only | Print | Product List | Glossary Off
Versions: 1 2 3 4 5 6 7 8 9 10 11 12 13 14 15 16 17 18 19 20 21 22 23 24 25 26 27 28 29 30 31 32 33 34 35 36 37 38 39 40 41 42 43 44 45 46 47 48 49 50

000
ASUS43 KIND 192209
RWRIN

WEATHER ROUNDUP FOR INDIANA
NATIONAL WEATHER SERVICE INDIANAPOLIS IN
600 PM EDT TUE AUG 19 2014

NOTE: "FAIR" INDICATES FEW OR NO CLOUDS BELOW 12,000 FEET WITH NO
SIGNIFICANT WEATHER AND/OR OBSTRUCTIONS TO VISIBILITY.

* - STATION DOES NOT REPORT WEATHER SUCH AS PRECIPITATION OR FOG.

+ - STATION NOT QUALITY CONTROLLED BY THE NATIONAL WEATHER SERVICE.
    USE DATA WITH CAUTION...ESPECIALLY DEWPOINT AND RELATIVE
    HUMIDITY OBSERVATIONS.

INZ001>003-010>013-019-020-192300-
NORTHWEST INDIANA

CITY           SKY/WX    TMP DP  RH WIND       PRES   REMARKS
GARY /AIRPORT/ MOSUNNY   81  66  61 S8G20     29.74
KNOX *+        PTSUNNY   76  64  66 CALM      29.76S
LA PORTE +     PTSUNNY   77  63  61 SW9       29.77S
MICHIGAN CITY+ PTSUNNY   77  61  57 S7        29.75S
MONTICELLO +   CLOUDY    76  67  75 SW10      29.77R
RENSSELAER +   MOSUNNY   82  73  74 SW3       29.76S
VALPARAISO     PTSUNNY   78  64  61 SW9       29.77R

$$

LMZ046-743>745-192300-
SOUTHERN LAKE MICHIGAN

STATION/POSITION TIME  TEMP WIND        PRES
                       AIR  DIR/SP/G
                 (UTC) (F)  (DEG/KT/KT) (MB)
BURNS HARBOR     2200   78  220/ 14/ 18   N/A
MICHIGAN CITY    2200   78  180/ 12/ 18   N/A

$$

INZ004-005-014>016-021>024-192300-
NORTH CENTRAL INDIANA

CITY           SKY/WX    TMP DP  RH WIND       PRES   REMARKS
ELKHART        PTSUNNY   77  68  73 S7        29.78
GOSHEN         CLOUDY    76  66  71 S8        29.79S
LOGANSPORT +   CLOUDY    70  64  83 CALM      29.78R
PERU/GRISSOM   DRIZZLE   71  71 100 S7        29.77F
ROCHESTER +    CLOUDY    77  70  78 NE3       29.78F
SOUTH BEND     PTSUNNY   78  66  66 SW10      29.77R
WARSAW +       LGT RAIN  72  66  83 CALM      29.79F

$$

INZ006>009-017-018-025>027-192300-
NORTHEAST INDIANA

CITY           SKY/WX    TMP DP  RH WIND       PRES   REMARKS
ANGOLA *+      SUNNY     68  61  77 CALM      29.80F
AUBURN +       CLOUDY    72  66  83 CALM      29.81F
FORT WAYNE     PTSUNNY   75  67  76 CALM      29.80S THUNDER
HUNTINGTON +   PTSUNNY   80  69  68 W7        29.79S THUNDER

$$

INZ028-029-035-036-043>045-051>053-192300-
WEST CENTRAL INDIANA

CITY           SKY/WX    TMP DP  RH WIND       PRES   REMARKS
GREENCASTLE +  MOSUNNY   81  72  74 CALM      29.80F
LAFAYETTE      PTSUNNY   76  69  79 S3        29.77R
TERRE HAUTE    MOSUNNY   84  72  67 SW13      29.78F

$$

INZ030>032-037>040-046>048-054>057-064-065-192300-
CENTRAL INDIANA

CITY           SKY/WX    TMP DP  RH WIND       PRES   REMARKS
CP ATTERBURY + PTSUNNY   82  68  61 SW9       29.81R
COLUMBUS       MOSUNNY   84  72  65 SW9       29.81R
INDIANAPOLIS   PTSUNNY   83  69  62 SW13      29.80R
-EAGLE CREEK   PTSUNNY   84  67  56 SW12G18   29.79R
KOKOMO *+      CLOUDY    73  66  78 CALM      29.79F
MARION +       LGT RAIN  79  68  70 CALM      29.79F
MT COMFORT *+  CLOUDY    82  64  54 SW7       29.82R
SHELBYVILLE    PTSUNNY   84  69  60 SW9       29.80R
ZIONSVILLE +   CLOUDY    82  67  59 SW8       29.81R

$$

INZ033-034-041-042-049-050-058-059-192300-
EAST CENTRAL INDIANA

CITY           SKY/WX    TMP DP  RH WIND       PRES   REMARKS
MUNCIE         MOSUNNY   83  65  54 W6        29.80S

$$

INZ060-061-067>069-081>083-085>088-192300-
SOUTHWEST INDIANA

CITY           SKY/WX    TMP DP  RH WIND       PRES   REMARKS
EVANSVILLE     PTSUNNY   86  74  67 SW9       29.80F
WASHINGTON +   CLOUDY    83  75  76 SW6       29.79S

$$

INZ062-063-066-070>080-084-089>092-192300-
SOUTH CENTRAL AND SOUTHEAST INDIANA

CITY           SKY/WX    TMP DP  RH WIND       PRES   REMARKS
BEDFORD +      PTSUNNY   82  68  61 S5        29.81
BLOOMINGTON    PTSUNNY   82  71  69 S6        29.81S

$$




USA.gov is the U.S. government's official web portal to all federal, state and local government web resources and services.